Regional Weather Roundup
Issued by NWS Charleston, WV

Home | Current Version | Previous Version | Graphics & Text | Print | Product List | Glossary On
Versions: 1 2 3 4 5 6 7 8 9 10 11 12 13 14 15 16 17 18 19 20 21 22 23 24 25 26 27 28 29 30 31 32 33 34 35 36 37 38 39 40 41 42 43 44 45 46 47 48 49 50
000
ASUS41 KRLX 271610
RWRRLX
West Virginia Regional Weather Roundup
National Weather Service Charleston WV
1200 PM EDT TUE SEP 27 2016

Note: "fair" indicates few or no clouds below 12,000 feet with no
significant weather and/or obstructions to visibility.

WVZ003-271700-
Northern Panhandle of West Virginia

CITY           SKY/WX    TMP DP  RH WIND       PRES   REMARKS
WHEELING       SUNNY     67  45  45 SW8       29.96F
$$

WVZ009-271700-
Northwest West Virginia

CITY           SKY/WX    TMP DP  RH WIND       PRES   REMARKS
PARKERSBURG    SUNNY     69  46  43 S12       30.00F
$$

WVZ006-271700-
Western West Virginia

CITY           SKY/WX    TMP DP  RH WIND       PRES   REMARKS
HUNTINGTON     SUNNY     69  49  48 VRB6      30.00F
$$

WVZ015-271700-
West Central West Virginia

CITY           SKY/WX    TMP DP  RH WIND       PRES   REMARKS
CHARLESTON     MOSUNNY   67  48  50 CALM      30.02F
$$

WVZ022-031-271700-
North Central West Virginia

CITY           SKY/WX    TMP DP  RH WIND       PRES   REMARKS
CLARKSBURG     MOSUNNY   65  50  58 S12       30.00F
MORGANTOWN     MOSUNNY   67  50  54 S9        30.00F
$$

WVZ025-035-042-045-271700-
Southern West Virginia

CITY           SKY/WX    TMP DP  RH WIND       PRES   REMARKS
BECKLEY        SUNNY     63  39  41 NW7       30.05F
LOGAN            N/A     64  48  55 CALM      30.03F
BLUEFIELD      MOSUNNY   63  54  72 SW7       30.06S
LEWISBURG      SUNNY     63  38  39 W7        30.04S
$$

WVZ047-271700-
Northern Mountains of West Virginia

CITY           SKY/WX    TMP DP  RH WIND       PRES   REMARKS
ELKINS         SUNNY     64  45  49 SW5       30.03F
$$

WVZ052-271700-
Eastern Panhandle of West Virginia

CITY           SKY/WX    TMP DP  RH WIND       PRES   REMARKS
MARTINSBURG    SUNNY     71  41  33 SW8       29.97F
PETERSBURG     SUNNY     71  45  38 E5        29.98F
$$



USA.gov is the U.S. government's official web portal to all federal, state and local government web resources and services.